Time,TemperatureF,DewpointF,PressureIn,WindDirection,WindDirectionDegrees,WindSpeedMPH,WindSpeedGustMPH,Humidity,HourlyPrecipIn,Conditions,Clouds,dailyrainin,SoftwareType,DateUTC
2013-05-03 00:01:00,40.0,37.0,30.26,North,0,0.0,0.0,89,0.13,,,6.57,WUHU216HW,2013-05-03 05:01:00,
2013-05-03 00:06:00,40.0,37.0,30.26,North,0,0.0,0.0,89,0.15,,,6.58,WUHU216HW,2013-05-03 05:06:00,
2013-05-03 00:11:00,40.0,37.0,30.26,North,0,0.0,0.0,89,0.17,,,6.60,WUHU216HW,2013-05-03 05:11:00,
2013-05-03 00:16:00,40.0,37.0,30.26,North,0,0.0,0.0,89,0.17,,,6.62,WUHU216HW,2013-05-03 05:16:00,
2013-05-03 00:21:00,40.0,37.0,30.26,North,0,0.0,0.0,89,0.19,,,6.64,WUHU216HW,2013-05-03 05:21:00,
2013-05-03 00:26:00,39.8,36.8,30.26,North,0,0.0,0.0,89,0.19,,,6.66,WUHU216HW,2013-05-03 05:26:00,
2013-05-03 00:31:00,39.8,36.8,30.26,North,0,0.0,0.0,89,0.18,,,6.66,WUHU216HW,2013-05-03 05:31:00,
2013-05-03 00:36:00,39.8,36.8,30.26,North,0,0.0,0.0,89,0.17,,,6.68,WUHU216HW,2013-05-03 05:36:00,
2013-05-03 00:41:00,39.8,36.8,30.26,North,0,0.0,0.0,89,0.17,,,6.70,WUHU216HW,2013-05-03 05:41:00,
2013-05-03 00:46:00,39.8,36.8,30.26,North,0,0.0,0.0,89,0.19,,,6.73,WUHU216HW,2013-05-03 05:46:00,
2013-05-03 00:51:00,39.6,36.6,30.26,North,0,0.0,0.0,89,0.20,,,6.75,WUHU216HW,2013-05-03 05:51:00,
2013-05-03 00:56:00,39.6,36.6,30.26,North,0,0.0,0.0,89,0.21,,,6.77,WUHU216HW,2013-05-03 05:56:00,
2013-05-03 01:01:00,39.6,36.6,30.26,North,0,0.0,0.0,89,0.22,,,6.80,WUHU216HW,2013-05-03 06:01:00,
2013-05-03 01:06:00,39.6,36.6,30.25,North,0,0.0,0.0,89,0.20,,,6.80,WUHU216HW,2013-05-03 06:06:00,
2013-05-03 01:11:00,39.6,36.6,30.25,North,0,0.0,0.0,89,0.19,,,6.80,WUHU216HW,2013-05-03 06:11:00,
2013-05-03 01:16:00,39.6,36.6,30.25,North,0,0.0,0.0,89,0.18,,,6.80,WUHU216HW,2013-05-03 06:16:00,
2013-05-03 01:21:00,39.6,36.6,30.25,North,0,0.0,0.0,89,0.16,,,6.81,WUHU216HW,2013-05-03 06:21:00,
2013-05-03 01:26:00,39.6,36.6,30.25,North,0,0.0,0.0,89,0.17,,,6.83,WUHU216HW,2013-05-03 06:26:00,
2013-05-03 01:31:00,39.4,36.5,30.25,North,0,0.0,0.0,89,0.19,,,6.84,WUHU216HW,2013-05-03 06:31:00,
2013-05-03 01:36:00,39.6,36.6,30.25,North,0,0.0,0.0,89,0.18,,,6.86,WUHU216HW,2013-05-03 06:36:00,
2013-05-03 01:41:00,39.6,36.6,30.24,North,0,0.0,0.0,89,0.15,,,6.87,WUHU216HW,2013-05-03 06:41:00,
2013-05-03 01:46:00,39.4,36.5,30.23,North,0,0.0,0.0,89,0.14,,,6.87,WUHU216HW,2013-05-03 06:46:00,
2013-05-03 01:51:00,39.2,36.3,30.23,North,0,0.0,0.0,89,0.12,,,6.87,WUHU216HW,2013-05-03 06:51:00,
2013-05-03 01:56:00,39.2,36.3,30.23,North,0,0.0,0.0,89,0.10,,,6.87,WUHU216HW,2013-05-03 06:56:00,
2013-05-03 02:01:00,39.2,36.3,30.22,North,0,0.0,0.0,89,0.07,,,0.00,WUHU216HW,2013-05-03 07:01:00,
2013-05-03 02:06:00,39.2,36.3,30.21,North,0,0.0,0.0,89,0.07,,,0.00,WUHU216HW,2013-05-03 07:06:00,
2013-05-03 02:11:00,39.1,36.1,30.21,North,0,0.0,0.0,89,0.07,,,0.00,WUHU216HW,2013-05-03 07:11:00,
2013-05-03 02:16:00,38.9,35.9,30.21,North,0,0.0,0.0,89,0.07,,,0.00,WUHU216HW,2013-05-03 07:16:00,
2013-05-03 02:21:00,39.1,36.1,30.21,North,0,0.0,0.0,89,0.05,,,0.00,WUHU216HW,2013-05-03 07:21:00,
2013-05-03 02:26:00,38.9,35.9,30.21,North,0,0.0,0.0,89,0.04,,,0.00,WUHU216HW,2013-05-03 07:26:00,
2013-05-03 02:31:00,38.9,36.2,30.21,North,0,0.0,0.0,90,0.02,,,0.00,WUHU216HW,2013-05-03 07:31:00,
2013-05-03 02:36:00,38.9,36.2,30.21,North,0,0.0,0.0,90,0.01,,,0.00,WUHU216HW,2013-05-03 07:36:00,
2013-05-03 02:41:00,38.9,36.2,30.21,North,0,0.0,0.0,90,0.00,,,0.00,WUHU216HW,2013-05-03 07:41:00,
2013-05-03 02:45:00,38.9,36.2,30.21,North,0,0.0,0.0,90,0.00,,,0.00,WUHU216HW,2013-05-03 07:45:00,
2013-05-03 02:50:00,38.9,35.9,30.21,North,0,0.0,0.0,89,0.00,,,0.00,WUHU216HW,2013-05-03 07:50:00,
2013-05-03 02:55:00,38.9,35.9,30.21,North,0,0.0,0.0,89,0.00,,,0.00,WUHU216HW,2013-05-03 07:55:00,
2013-05-03 03:00:00,38.9,36.2,30.21,North,0,0.0,0.0,90,0.00,,,0.00,WUHU216HW,2013-05-03 08:00:00,
2013-05-03 03:05:00,38.9,36.2,30.21,North,0,0.0,0.0,90,0.00,,,0.00,WUHU216HW,2013-05-03 08:05:00,
2013-05-03 03:10:00,38.9,36.2,30.21,North,0,0.0,0.0,90,0.00,,,0.00,WUHU216HW,2013-05-03 08:10:00,
2013-05-03 03:15:00,38.9,36.2,30.21,North,0,0.0,0.0,90,0.00,,,0.00,WUHU216HW,2013-05-03 08:15:00,
2013-05-03 03:20:00,38.9,36.2,30.21,North,0,0.0,0.0,90,0.01,,,0.01,WUHU216HW,2013-05-03 08:20:00,
2013-05-03 03:25:00,38.9,36.2,30.21,North,0,0.0,0.0,90,0.01,,,0.01,WUHU216HW,2013-05-03 08:25:00,
2013-05-03 03:30:00,38.9,36.2,30.20,North,0,0.0,0.0,90,0.01,,,0.01,WUHU216HW,2013-05-03 08:30:00,
2013-05-03 03:35:00,38.9,36.2,30.20,North,0,0.0,0.0,90,0.01,,,0.01,WUHU216HW,2013-05-03 08:35:00,
2013-05-03 03:40:00,38.7,36.0,30.20,North,0,0.0,0.0,90,0.01,,,0.01,WUHU216HW,2013-05-03 08:40:00,
2013-05-03 03:45:00,38.7,36.0,30.20,North,0,0.0,0.0,90,0.01,,,0.01,WUHU216HW,2013-05-03 08:45:00,
2013-05-03 03:50:00,38.7,36.0,30.20,North,0,0.0,0.0,90,0.01,,,0.01,WUHU216HW,2013-05-03 08:50:00,
2013-05-03 03:55:00,38.7,36.0,30.20,North,0,0.0,0.0,90,0.01,,,0.01,WUHU216HW,2013-05-03 08:55:00,
2013-05-03 04:00:00,38.7,36.0,30.20,North,0,0.0,0.0,90,0.01,,,0.01,WUHU216HW,2013-05-03 09:00:00,
2013-05-03 04:05:00,38.7,36.0,30.20,North,0,0.0,0.0,90,0.01,,,0.01,WUHU216HW,2013-05-03 09:05:00,
2013-05-03 04:10:00,38.7,36.0,30.19,North,0,0.0,0.0,90,0.01,,,0.01,WUHU216HW,2013-05-03 09:10:00,
2013-05-03 04:15:00,38.7,36.0,30.20,North,0,0.0,0.0,90,0.01,,,0.01,WUHU216HW,2013-05-03 09:15:00,
2013-05-03 04:20:00,38.7,36.0,30.20,North,0,0.0,0.0,90,0.00,,,0.01,WUHU216HW,2013-05-03 09:20:00,
2013-05-03 04:25:00,38.7,36.0,30.20,North,0,0.0,0.0,90,0.00,,,0.01,WUHU216HW,2013-05-03 09:25:00,
2013-05-03 04:30:00,38.7,36.0,30.19,North,0,0.0,0.0,90,0.00,,,0.01,WUHU216HW,2013-05-03 09:30:00,
2013-05-03 04:35:00,38.7,36.0,30.19,North,0,0.0,0.0,90,0.00,,,0.01,WUHU216HW,2013-05-03 09:35:00,
2013-05-03 04:40:00,38.7,36.0,30.19,North,0,0.0,0.0,90,0.00,,,0.01,WUHU216HW,2013-05-03 09:40:00,
2013-05-03 04:45:00,38.7,36.0,30.19,North,0,0.0,0.0,90,0.00,,,0.01,WUHU216HW,2013-05-03 09:45:00,
2013-05-03 04:50:00,38.7,36.0,30.19,North,0,0.0,0.0,90,0.00,,,0.01,WUHU216HW,2013-05-03 09:50:00,
2013-05-03 04:55:00,38.7,36.0,30.19,North,0,0.0,0.0,90,0.00,,,0.01,WUHU216HW,2013-05-03 09:55:00,
2013-05-03 05:00:00,38.7,36.0,30.19,North,0,0.0,0.0,90,0.00,,,0.01,WUHU216HW,2013-05-03 10:00:00,
2013-05-03 05:05:00,38.7,36.0,30.19,North,0,0.0,0.0,90,0.00,,,0.01,WUHU216HW,2013-05-03 10:05:00,
2013-05-03 05:10:00,38.7,36.0,30.19,North,0,0.0,0.0,90,0.00,,,0.01,WUHU216HW,2013-05-03 10:10:00,
2013-05-03 05:15:00,38.5,35.8,30.19,North,0,0.0,0.0,90,0.00,,,0.01,WUHU216HW,2013-05-03 10:15:00,
2013-05-03 05:20:00,38.7,36.0,30.19,North,0,0.0,0.0,90,0.00,,,0.01,WUHU216HW,2013-05-03 10:20:00,
2013-05-03 05:25:00,38.5,35.8,30.19,North,0,0.0,0.0,90,0.00,,,0.01,WUHU216HW,2013-05-03 10:25:00,
2013-05-03 05:30:00,38.5,35.8,30.18,North,0,0.0,0.0,90,0.00,,,0.01,WUHU216HW,2013-05-03 10:30:00,
2013-05-03 05:35:00,38.5,35.8,30.19,North,0,0.0,0.0,90,0.00,,,0.01,WUHU216HW,2013-05-03 10:35:00,
2013-05-03 05:40:00,38.5,35.8,30.19,North,0,0.0,0.0,90,0.00,,,0.01,WUHU216HW,2013-05-03 10:40:00,
2013-05-03 05:45:00,38.5,35.8,30.18,North,0,0.0,0.0,90,0.00,,,0.01,WUHU216HW,2013-05-03 10:45:00,
2013-05-03 05:50:00,38.5,35.8,30.18,North,0,0.0,0.0,90,0.00,,,0.01,WUHU216HW,2013-05-03 10:50:00,
2013-05-03 05:55:00,38.5,35.8,30.18,North,0,0.0,0.0,90,0.00,,,0.01,WUHU216HW,2013-05-03 10:55:00,
2013-05-03 06:00:00,38.5,35.8,30.19,North,0,0.0,0.0,90,0.00,,,0.01,WUHU216HW,2013-05-03 11:00:00,
2013-05-03 06:05:00,38.5,35.8,30.19,North,0,0.0,0.0,90,0.00,,,0.01,WUHU216HW,2013-05-03 11:05:00,
2013-05-03 06:10:00,38.5,35.8,30.20,North,0,0.0,0.0,90,0.00,,,0.01,WUHU216HW,2013-05-03 11:10:00,
2013-05-03 06:15:00,38.7,36.0,30.20,North,0,0.0,0.0,90,0.00,,,0.01,WUHU216HW,2013-05-03 11:15:00,
2013-05-03 06:20:00,38.7,36.0,30.19,North,0,0.0,0.0,90,0.00,,,0.01,WUHU216HW,2013-05-03 11:20:00,
2013-05-03 06:25:00,38.7,36.0,30.19,North,0,0.0,0.0,90,0.00,,,0.01,WUHU216HW,2013-05-03 11:25:00,
2013-05-03 06:30:00,38.5,36.1,30.18,North,0,0.0,0.0,91,0.00,,,0.01,WUHU216HW,2013-05-03 11:30:00,
2013-05-03 06:35:00,38.5,36.1,30.18,North,0,0.0,0.0,91,0.00,,,0.01,WUHU216HW,2013-05-03 11:35:00,
2013-05-03 06:40:00,38.5,36.1,30.18,North,0,0.0,0.0,91,0.00,,,0.01,WUHU216HW,2013-05-03 11:40:00,
2013-05-03 06:45:00,38.5,36.1,30.18,North,0,0.0,0.0,91,0.01,,,0.02,WUHU216HW,2013-05-03 11:45:00,
2013-05-03 06:50:00,38.5,35.8,30.18,North,0,0.0,0.0,90,0.02,,,0.03,WUHU216HW,2013-05-03 11:50:00,
2013-05-03 06:55:00,38.5,35.8,30.20,North,0,0.0,0.0,90,0.02,,,0.03,WUHU216HW,2013-05-03 11:55:00,
2013-05-03 07:00:00,38.5,35.8,30.20,North,0,0.0,0.0,90,0.04,,,0.05,WUHU216HW,2013-05-03 12:00:00,
2013-05-03 07:05:00,38.5,35.8,30.20,North,0,0.0,0.0,90,0.06,,,0.23,WUHU216HW,2013-05-03 12:05:00,
2013-05-03 07:10:00,38.7,36.0,30.20,North,0,0.0,0.0,90,0.08,,,0.25,WUHU216HW,2013-05-03 12:10:00,
2013-05-03 07:15:00,38.7,36.0,30.19,North,0,0.0,0.0,90,0.11,,,0.28,WUHU216HW,2013-05-03 12:15:00,
2013-05-03 07:20:00,38.9,36.2,30.17,North,0,0.0,0.0,90,0.12,,,0.29,WUHU216HW,2013-05-03 12:20:00,
2013-05-03 07:25:00,38.7,36.0,30.18,North,0,0.0,0.0,90,0.16,,,0.33,WUHU216HW,2013-05-03 12:25:00,
2013-05-03 07:30:00,38.7,36.0,30.18,North,0,0.0,0.0,90,0.19,,,0.36,WUHU216HW,2013-05-03 12:30:00,
2013-05-03 07:35:00,38.7,36.0,30.18,North,0,0.0,0.0,90,0.19,,,0.36,WUHU216HW,2013-05-03 12:35:00,
2013-05-03 07:40:00,38.9,36.2,30.18,North,0,0.0,0.0,90,0.19,,,0.37,WUHU216HW,2013-05-03 12:40:00,
2013-05-03 07:45:00,38.9,36.2,30.18,North,0,0.0,0.0,90,0.19,,,0.38,WUHU216HW,2013-05-03 12:45:00,
2013-05-03 07:50:00,38.9,36.2,30.18,North,0,0.0,0.0,90,0.19,,,0.38,WUHU216HW,2013-05-03 12:50:00,
2013-05-03 07:55:00,39.1,36.6,30.18,North,0,0.0,0.0,91,0.19,,,0.38,WUHU216HW,2013-05-03 12:55:00,
2013-05-03 08:00:00,39.2,36.7,30.18,North,0,0.0,0.0,91,0.15,,,0.38,WUHU216HW,2013-05-03 13:00:00,
2013-05-03 08:05:00,39.4,37.0,30.17,North,0,0.0,0.0,91,0.14,,,0.71,WUHU216HW,2013-05-03 13:05:00,
2013-05-03 08:10:00,39.4,37.0,30.16,North,0,0.0,0.0,91,0.11,,,0.71,WUHU216HW,2013-05-03 13:10:00,
2013-05-03 08:15:00,39.6,37.2,30.16,North,0,0.0,0.0,91,0.10,,,0.71,WUHU216HW,2013-05-03 13:15:00,
2013-05-03 08:20:00,39.8,37.4,30.16,North,0,0.0,0.0,91,0.05,,,0.71,WUHU216HW,2013-05-03 13:20:00,
2013-05-03 08:25:00,40.0,37.5,30.17,North,0,0.0,0.0,91,0.03,,,0.71,WUHU216HW,2013-05-03 13:25:00,
2013-05-03 08:30:00,40.0,37.5,30.17,North,0,0.0,0.0,91,0.02,,,0.71,WUHU216HW,2013-05-03 13:30:00,
2013-05-03 08:35:00,40.0,37.5,30.17,North,0,0.0,0.0,91,0.02,,,0.71,WUHU216HW,2013-05-03 13:35:00,
2013-05-03 08:40:00,40.1,37.7,30.17,North,0,0.0,0.0,91,0.01,,,0.71,WUHU216HW,2013-05-03 13:40:00,
2013-05-03 08:45:00,40.1,37.7,30.17,North,0,0.0,0.0,91,0.00,,,0.71,WUHU216HW,2013-05-03 13:45:00,
2013-05-03 08:50:00,40.3,37.9,30.17,North,0,0.0,0.0,91,0.00,,,0.71,WUHU216HW,2013-05-03 13:50:00,
2013-05-03 08:55:00,40.3,37.9,30.17,North,0,0.0,0.0,91,0.00,,,0.71,WUHU216HW,2013-05-03 13:55:00,
2013-05-03 09:00:00,40.5,38.1,30.17,North,0,0.0,0.0,91,0.00,,,0.71,WUHU216HW,2013-05-03 14:00:00,
2013-05-03 09:05:00,40.5,38.1,30.16,North,0,0.0,0.0,91,0.00,,,1.03,WUHU216HW,2013-05-03 14:05:00,
2013-05-03 09:10:00,40.7,38.3,30.16,North,0,0.0,0.0,91,0.00,,,1.03,WUHU216HW,2013-05-03 14:10:00,
2013-05-03 09:15:00,40.7,38.3,30.15,North,0,0.0,0.0,91,0.00,,,1.03,WUHU216HW,2013-05-03 14:15:00,
2013-05-03 09:18:00,42.1,39.4,30.15,North,0,0.0,0.0,90,0.03,,,1.71,WUHU216HW,2013-05-03 14:18:00,
2013-05-03 09:19:00,42.1,39.4,30.15,North,0,0.0,0.0,90,0.03,,,1.71,WUHU216HW,2013-05-03 14:19:00,
2013-05-03 09:20:00,40.9,38.4,30.15,North,0,0.0,0.0,91,0.00,,,1.03,WUHU216HW,2013-05-03 14:20:00,
2013-05-03 09:21:00,42.3,39.6,30.15,North,0,0.0,0.0,90,0.02,,,1.71,WUHU216HW,2013-05-03 14:21:00,
2013-05-03 09:22:00,42.3,39.6,30.15,North,0,0.0,0.0,90,0.02,,,1.71,WUHU216HW,2013-05-03 14:22:00,
2013-05-03 09:23:00,42.3,39.6,30.15,North,0,0.0,0.0,90,0.02,,,1.71,WUHU216HW,2013-05-03 14:23:00,
2013-05-03 09:24:00,42.3,39.6,30.15,North,0,0.0,0.0,90,0.02,,,1.71,WUHU216HW,2013-05-03 14:24:00,
2013-05-03 09:25:00,41.0,38.6,30.15,North,0,0.0,0.0,91,0.00,,,1.03,WUHU216HW,2013-05-03 14:25:00,
2013-05-03 09:26:00,42.5,39.8,30.15,North,0,0.0,0.0,90,0.02,,,1.71,WUHU216HW,2013-05-03 14:26:00,
2013-05-03 09:27:00,42.5,39.8,30.15,North,0,0.0,0.0,90,0.02,,,1.71,WUHU216HW,2013-05-03 14:27:00,
2013-05-03 09:28:00,42.5,39.8,30.15,North,0,0.0,0.0,90,0.02,,,1.71,WUHU216HW,2013-05-03 14:28:00,
2013-05-03 09:29:00,42.5,39.8,30.15,North,0,0.0,0.0,90,0.02,,,1.71,WUHU216HW,2013-05-03 14:29:00,
2013-05-03 09:30:00,41.0,38.3,30.15,North,0,0.0,0.0,90,0.00,,,1.03,WUHU216HW,2013-05-03 14:30:00,
2013-05-03 09:31:00,42.5,39.8,30.15,North,0,0.0,0.0,90,0.02,,,1.71,WUHU216HW,2013-05-03 14:31:00,
2013-05-03 09:32:00,42.7,40.0,30.15,North,0,0.0,0.0,90,0.02,,,1.71,WUHU216HW,2013-05-03 14:32:00,
2013-05-03 09:33:00,42.7,40.0,30.15,North,0,0.0,0.0,90,0.02,,,1.73,WUHU216HW,2013-05-03 14:33:00,
2013-05-03 09:34:00,42.7,40.0,30.15,North,0,0.0,0.0,90,0.02,,,1.73,WUHU216HW,2013-05-03 14:34:00,
2013-05-03 09:35:00,41.2,38.5,30.15,North,0,0.0,0.0,90,0.00,,,1.03,WUHU216HW,2013-05-03 14:35:00,
2013-05-03 09:37:00,42.7,40.0,30.15,North,0,0.0,0.0,90,0.02,,,1.73,WUHU216HW,2013-05-03 14:37:00,
2013-05-03 09:38:00,42.7,40.0,30.15,North,0,0.0,0.0,90,0.02,,,1.73,WUHU216HW,2013-05-03 14:38:00,
2013-05-03 09:39:00,42.7,40.0,30.15,North,0,0.0,0.0,90,0.02,,,1.73,WUHU216HW,2013-05-03 14:39:00,
2013-05-03 09:40:00,41.2,38.8,30.15,North,0,0.0,0.0,91,0.00,,,1.03,WUHU216HW,2013-05-03 14:40:00,
2013-05-03 09:41:00,42.7,40.0,30.15,North,0,0.0,0.0,90,0.02,,,1.73,WUHU216HW,2013-05-03 14:41:00,
2013-05-03 09:42:00,42.7,40.0,30.15,North,0,0.0,0.0,90,0.02,,,1.73,WUHU216HW,2013-05-03 14:42:00,
2013-05-03 09:43:00,42.8,40.1,30.14,North,0,0.0,0.0,90,0.02,,,1.73,WUHU216HW,2013-05-03 14:43:00,
2013-05-03 09:44:00,42.7,40.0,30.14,North,0,0.0,0.0,90,0.01,,,1.73,WUHU216HW,2013-05-03 14:44:00,
2013-05-03 09:45:00,41.4,38.7,30.15,North,0,0.0,0.0,90,0.00,,,1.03,WUHU216HW,2013-05-03 14:45:00,
2013-05-03 09:46:00,42.8,40.1,30.14,North,0,0.0,0.0,90,0.01,,,1.73,WUHU216HW,2013-05-03 14:46:00,
2013-05-03 09:47:00,42.8,40.1,30.14,North,0,0.0,0.0,90,0.01,,,1.73,WUHU216HW,2013-05-03 14:47:00,
2013-05-03 09:48:00,42.8,40.1,30.14,North,0,0.0,0.0,90,0.01,,,1.73,WUHU216HW,2013-05-03 14:48:00,
2013-05-03 09:49:00,42.8,40.1,30.14,North,0,0.0,0.0,90,0.01,,,1.73,WUHU216HW,2013-05-03 14:49:00,
2013-05-03 09:50:00,41.4,38.7,30.15,North,0,0.0,0.0,90,0.00,,,1.03,WUHU216HW,2013-05-03 14:50:00,
2013-05-03 09:51:00,43.0,40.3,30.14,North,0,0.0,0.0,90,0.01,,,1.73,WUHU216HW,2013-05-03 14:51:00,
2013-05-03 09:52:00,43.2,40.5,30.15,North,0,0.0,0.0,90,0.01,,,1.73,WUHU216HW,2013-05-03 14:52:00,
2013-05-03 09:53:00,43.0,40.3,30.14,North,0,0.0,0.0,90,0.01,,,1.73,WUHU216HW,2013-05-03 14:53:00,
2013-05-03 09:54:00,43.2,40.5,30.14,North,0,0.0,0.0,90,0.01,,,1.73,WUHU216HW,2013-05-03 14:54:00,
2013-05-03 09:55:00,41.6,38.9,30.15,North,0,0.0,0.0,90,0.00,,,1.03,WUHU216HW,2013-05-03 14:55:00,
2013-05-03 09:56:00,43.2,40.5,30.14,North,0,0.0,0.0,90,0.01,,,1.73,WUHU216HW,2013-05-03 14:56:00,
2013-05-03 09:57:00,43.4,40.7,30.14,North,0,0.0,0.0,90,0.01,,,1.73,WUHU216HW,2013-05-03 14:57:00,
2013-05-03 09:58:00,43.4,40.7,30.14,North,0,0.0,0.0,90,0.01,,,1.73,WUHU216HW,2013-05-03 14:58:00,
2013-05-03 09:59:00,43.6,40.9,30.14,North,0,0.0,0.0,90,0.01,,,1.73,WUHU216HW,2013-05-03 14:59:00,
2013-05-03 10:00:00,41.8,39.1,30.15,North,0,0.0,0.0,90,0.00,,,1.03,WUHU216HW,2013-05-03 15:00:00,
2013-05-03 10:01:00,43.6,40.9,30.14,North,0,0.0,0.0,90,0.01,,,1.73,WUHU216HW,2013-05-03 15:01:00,
2013-05-03 10:02:00,43.6,40.9,30.14,North,0,0.0,0.0,90,0.01,,,2.05,WUHU216HW,2013-05-03 15:02:00,
2013-05-03 10:03:00,43.6,40.9,30.14,North,0,0.0,0.0,90,0.01,,,2.05,WUHU216HW,2013-05-03 15:03:00,
2013-05-03 10:04:00,43.6,40.9,30.14,North,0,0.0,0.0,90,0.01,,,2.05,WUHU216HW,2013-05-03 15:04:00,
2013-05-03 10:05:00,41.8,39.1,30.16,North,0,0.0,0.0,90,0.00,,,1.36,WUHU216HW,2013-05-03 15:05:00,
2013-05-03 10:06:00,43.6,40.9,30.15,North,0,0.0,0.0,90,0.01,,,2.05,WUHU216HW,2013-05-03 15:06:00,
2013-05-03 10:07:00,43.6,40.9,30.15,North,0,0.0,0.0,90,0.01,,,2.05,WUHU216HW,2013-05-03 15:07:00,
2013-05-03 10:08:00,43.6,40.9,30.14,North,0,0.0,0.0,90,0.01,,,2.05,WUHU216HW,2013-05-03 15:08:00,
2013-05-03 10:09:00,41.8,39.1,30.16,North,0,0.0,0.0,90,0.00,,,1.36,WUHU216HW,2013-05-03 15:09:00,
2013-05-03 10:10:00,43.6,40.9,30.14,North,0,0.0,0.0,90,0.01,,,2.05,WUHU216HW,2013-05-03 15:10:00,
2013-05-03 10:11:00,43.6,40.9,30.14,North,0,0.0,0.0,90,0.01,,,2.05,WUHU216HW,2013-05-03 15:11:00,
2013-05-03 10:12:00,43.6,40.9,30.14,North,0,0.0,0.0,90,0.01,,,2.05,WUHU216HW,2013-05-03 15:12:00,
2013-05-03 10:13:00,43.6,40.9,30.14,North,0,0.0,0.0,90,0.01,,,2.05,WUHU216HW,2013-05-03 15:13:00,
2013-05-03 10:14:00,41.9,39.2,30.16,North,0,0.0,0.0,90,0.00,,,1.36,WUHU216HW,2013-05-03 15:14:00,
2013-05-03 10:15:00,43.7,41.0,30.14,North,0,0.0,0.0,90,0.01,,,2.05,WUHU216HW,2013-05-03 15:15:00,
2013-05-03 10:16:00,43.7,41.0,30.14,North,0,0.0,0.0,90,0.01,,,2.05,WUHU216HW,2013-05-03 15:16:00,
2013-05-03 10:17:00,43.7,41.0,30.14,North,0,0.0,0.0,90,0.01,,,2.05,WUHU216HW,2013-05-03 15:17:00,
2013-05-03 10:18:00,43.7,41.0,30.14,North,0,0.0,0.0,90,0.01,,,2.05,WUHU216HW,2013-05-03 15:18:00,
2013-05-03 10:19:00,41.9,39.2,30.16,North,0,0.0,0.0,90,0.00,,,1.36,WUHU216HW,2013-05-03 15:19:00,
2013-05-03 10:20:00,43.9,41.2,30.14,North,0,0.0,0.0,90,0.01,,,2.05,WUHU216HW,2013-05-03 15:20:00,
2013-05-03 10:21:00,43.9,41.2,30.13,North,0,0.0,0.0,90,0.01,,,2.05,WUHU216HW,2013-05-03 15:21:00,
2013-05-03 10:22:00,43.9,41.2,30.13,North,0,0.0,0.0,90,0.01,,,2.05,WUHU216HW,2013-05-03 15:22:00,
2013-05-03 10:23:00,43.9,41.2,30.14,North,0,0.0,0.0,90,0.01,,,2.05,WUHU216HW,2013-05-03 15:23:00,
2013-05-03 10:24:00,41.8,39.1,30.16,North,0,0.0,0.0,90,0.01,,,1.37,WUHU216HW,2013-05-03 15:24:00,
2013-05-03 10:25:00,43.9,41.2,30.14,North,0,0.0,0.0,90,0.01,,,2.05,WUHU216HW,2013-05-03 15:25:00,
2013-05-03 10:26:00,43.9,41.2,30.14,North,0,0.0,0.0,90,0.01,,,2.05,WUHU216HW,2013-05-03 15:26:00,
2013-05-03 10:27:00,44.1,41.4,30.13,North,0,0.0,0.0,90,0.01,,,2.05,WUHU216HW,2013-05-03 15:27:00,
2013-05-03 10:28:00,44.1,41.4,30.13,North,0,0.0,0.0,90,0.01,,,2.05,WUHU216HW,2013-05-03 15:28:00,
2013-05-03 10:29:00,41.9,39.2,30.15,North,0,0.0,0.0,90,0.01,,,1.37,WUHU216HW,2013-05-03 15:29:00,
2013-05-03 10:30:00,44.3,41.6,30.13,North,0,0.0,0.0,90,0.01,,,2.05,WUHU216HW,2013-05-03 15:30:00,
2013-05-03 10:31:00,44.3,41.6,30.13,North,0,0.0,0.0,90,0.01,,,2.05,WUHU216HW,2013-05-03 15:31:00,
2013-05-03 10:32:00,44.5,41.8,30.13,North,0,0.0,0.0,90,0.00,,,2.05,WUHU216HW,2013-05-03 15:32:00,
2013-05-03 10:33:00,44.5,41.8,30.13,North,0,0.0,0.0,90,0.00,,,2.05,WUHU216HW,2013-05-03 15:33:00,
2013-05-03 10:34:00,41.9,39.2,30.15,North,0,0.0,0.0,90,0.01,,,1.37,WUHU216HW,2013-05-03 15:34:00,
2013-05-03 10:35:00,44.6,41.9,30.13,North,0,0.0,0.0,90,0.00,,,2.05,WUHU216HW,2013-05-03 15:35:00,
2013-05-03 10:36:00,44.5,41.8,30.13,North,0,0.0,0.0,90,0.00,,,2.05,WUHU216HW,2013-05-03 15:36:00,
2013-05-03 10:37:00,44.5,41.8,30.13,North,0,0.0,0.0,90,0.00,,,2.05,WUHU216HW,2013-05-03 15:37:00,
2013-05-03 10:38:00,44.6,42.2,30.13,North,0,0.0,0.0,91,0.00,,,2.05,WUHU216HW,2013-05-03 15:38:00,
2013-05-03 10:39:00,41.8,39.1,30.15,North,0,0.0,0.0,90,0.02,,,1.38,WUHU216HW,2013-05-03 15:39:00,
2013-05-03 10:40:00,44.6,42.2,30.13,North,0,0.0,0.0,91,0.00,,,2.05,WUHU216HW,2013-05-03 15:40:00,
2013-05-03 10:41:00,44.6,42.2,30.13,North,0,0.0,0.0,91,0.00,,,2.05,WUHU216HW,2013-05-03 15:41:00,
2013-05-03 10:42:00,44.6,42.2,30.13,North,0,0.0,0.0,91,0.00,,,2.05,WUHU216HW,2013-05-03 15:42:00,
2013-05-03 10:43:00,44.6,41.9,30.13,North,0,0.0,0.0,90,0.00,,,2.05,WUHU216HW,2013-05-03 15:43:00,
2013-05-03 10:44:00,41.9,39.2,30.14,North,0,0.0,0.0,90,0.03,,,1.39,WUHU216HW,2013-05-03 15:44:00,
2013-05-03 10:45:00,44.8,42.4,30.13,North,0,0.0,0.0,91,0.00,,,2.05,WUHU216HW,2013-05-03 15:45:00,
2013-05-03 10:46:00,44.8,42.4,30.13,North,0,0.0,0.0,91,0.00,,,2.05,WUHU216HW,2013-05-03 15:46:00,
2013-05-03 10:47:00,44.8,42.4,30.13,North,0,0.0,0.0,91,0.00,,,2.05,WUHU216HW,2013-05-03 15:47:00,
2013-05-03 10:48:00,44.8,42.4,30.13,North,0,0.0,0.0,91,0.00,,,2.05,WUHU216HW,2013-05-03 15:48:00,
2013-05-03 10:49:00,41.9,39.2,30.15,North,0,0.0,0.0,90,0.03,,,1.39,WUHU216HW,2013-05-03 15:49:00,
2013-05-03 10:50:00,45.0,42.6,30.13,North,0,0.0,0.0,91,0.00,,,2.05,WUHU216HW,2013-05-03 15:50:00,
2013-05-03 10:51:00,45.2,42.8,30.13,North,0,0.0,0.0,91,0.00,,,2.05,WUHU216HW,2013-05-03 15:51:00,
2013-05-03 10:52:00,45.2,42.8,30.12,North,0,0.0,0.0,91,0.00,,,2.05,WUHU216HW,2013-05-03 15:52:00,
2013-05-03 10:53:00,45.4,42.9,30.12,North,0,0.0,0.0,91,0.00,,,2.05,WUHU216HW,2013-05-03 15:53:00,
2013-05-03 10:54:00,41.9,39.2,30.15,North,0,0.0,0.0,90,0.03,,,1.39,WUHU216HW,2013-05-03 15:54:00,
2013-05-03 10:59:00,41.9,39.2,30.15,North,0,0.0,0.0,90,0.03,,,1.39,WUHU216HW,2013-05-03 15:59:00,
2013-05-03 11:04:00,41.9,39.2,30.15,North,0,0.0,0.0,90,0.03,,,1.71,WUHU216HW,2013-05-03 16:04:00,
2013-05-03 11:09:00,41.9,39.2,30.15,North,0,0.0,0.0,90,0.03,,,1.71,WUHU216HW,2013-05-03 16:09:00,
2013-05-03 11:14:00,42.1,39.4,30.15,North,0,0.0,0.0,90,0.03,,,1.71,WUHU216HW,2013-05-03 16:14:00,
2013-05-03 11:28:00,46.6,43.9,30.13,North,0,0.0,0.0,90,0.00,,,2.38,WUHU216HW,2013-05-03 16:28:00,
2013-05-03 11:29:00,46.6,43.9,30.13,North,0,0.0,0.0,90,0.00,,,2.38,WUHU216HW,2013-05-03 16:29:00,
2013-05-03 11:30:00,46.6,43.9,30.13,North,0,0.0,0.0,90,0.00,,,2.38,WUHU216HW,2013-05-03 16:30:00,
2013-05-03 11:31:00,46.8,44.1,30.12,North,0,0.0,0.0,90,0.00,,,2.38,WUHU216HW,2013-05-03 16:31:00,
2013-05-03 11:32:00,46.8,44.1,30.12,North,0,0.0,0.0,90,0.00,,,2.38,WUHU216HW,2013-05-03 16:32:00,
2013-05-03 11:33:00,46.8,44.1,30.12,North,0,0.0,0.0,90,0.00,,,2.38,WUHU216HW,2013-05-03 16:33:00,
2013-05-03 11:34:00,46.8,44.1,30.12,North,0,0.0,0.0,90,0.00,,,2.38,WUHU216HW,2013-05-03 16:34:00,
2013-05-03 11:35:00,46.8,44.1,30.12,North,0,0.0,0.0,90,0.00,,,2.38,WUHU216HW,2013-05-03 16:35:00,
2013-05-03 11:36:00,46.8,44.1,30.12,North,0,0.0,0.0,90,0.00,,,2.38,WUHU216HW,2013-05-03 16:36:00,
2013-05-03 11:37:00,46.8,43.8,30.12,North,0,0.0,0.0,89,0.00,,,2.38,WUHU216HW,2013-05-03 16:37:00,
2013-05-03 11:38:00,46.8,44.1,30.12,North,0,0.0,0.0,90,0.00,,,2.38,WUHU216HW,2013-05-03 16:38:00,
2013-05-03 11:39:00,46.8,44.1,30.12,North,0,0.0,0.0,90,0.00,,,2.38,WUHU216HW,2013-05-03 16:39:00,
2013-05-03 11:42:00,47.0,44.0,30.12,North,0,0.0,0.0,89,0.01,,,2.38,WUHU216HW,2013-05-03 16:42:00,
2013-05-03 11:43:00,46.8,43.8,30.12,North,0,0.0,0.0,89,0.01,,,2.38,WUHU216HW,2013-05-03 16:43:00,
2013-05-03 11:44:00,47.0,44.0,30.12,North,0,0.0,0.0,89,0.01,,,2.38,WUHU216HW,2013-05-03 16:44:00,
2013-05-03 11:45:00,47.0,44.0,30.12,North,0,0.0,0.0,89,0.01,,,2.38,WUHU216HW,2013-05-03 16:45:00,
2013-05-03 11:46:00,47.0,44.0,30.12,North,0,0.0,0.0,89,0.01,,,2.38,WUHU216HW,2013-05-03 16:46:00,
2013-05-03 11:47:00,47.2,44.2,30.12,North,0,0.0,0.0,89,0.01,,,2.38,WUHU216HW,2013-05-03 16:47:00,
2013-05-03 11:48:00,47.2,44.2,30.12,North,0,0.0,0.0,89,0.01,,,2.38,WUHU216HW,2013-05-03 16:48:00,
2013-05-03 11:49:00,47.2,44.5,30.12,North,0,0.0,0.0,90,0.01,,,2.38,WUHU216HW,2013-05-03 16:49:00,
2013-05-03 11:50:00,47.2,44.5,30.12,North,0,0.0,0.0,90,0.01,,,2.38,WUHU216HW,2013-05-03 16:50:00,
2013-05-03 11:51:00,47.2,44.2,30.12,North,0,0.0,0.0,89,0.01,,,2.38,WUHU216HW,2013-05-03 16:51:00,
2013-05-03 11:52:00,47.2,44.2,30.12,North,0,0.0,0.0,89,0.01,,,2.38,WUHU216HW,2013-05-03 16:52:00,
2013-05-03 11:53:00,47.2,44.2,30.12,North,0,0.0,0.0,89,0.01,,,2.38,WUHU216HW,2013-05-03 16:53:00,
2013-05-03 11:54:00,47.2,44.2,30.12,North,0,0.0,0.0,89,0.01,,,2.38,WUHU216HW,2013-05-03 16:54:00,
2013-05-03 11:55:00,47.2,44.2,30.12,North,0,0.0,0.0,89,0.01,,,2.38,WUHU216HW,2013-05-03 16:55:00,
2013-05-03 11:56:00,47.2,44.2,30.12,North,0,0.0,0.0,89,0.01,,,2.38,WUHU216HW,2013-05-03 16:56:00,
2013-05-03 11:57:00,47.2,44.2,30.12,North,0,0.0,0.0,89,0.01,,,2.38,WUHU216HW,2013-05-03 16:57:00,
2013-05-03 11:58:00,47.3,44.4,30.12,North,0,0.0,0.0,89,0.01,,,2.38,WUHU216HW,2013-05-03 16:58:00,
2013-05-03 11:59:00,47.2,44.2,30.12,North,0,0.0,0.0,89,0.01,,,2.38,WUHU216HW,2013-05-03 16:59:00,
2013-05-03 12:00:00,47.2,44.2,30.12,North,0,0.0,0.0,89,0.01,,,2.38,WUHU216HW,2013-05-03 17:00:00,
2013-05-03 12:01:00,47.3,44.4,30.12,North,0,0.0,0.0,89,0.01,,,2.38,WUHU216HW,2013-05-03 17:01:00,
2013-05-03 12:02:00,47.3,44.4,30.12,North,0,0.0,0.0,89,0.01,,,2.71,WUHU216HW,2013-05-03 17:02:00,
2013-05-03 12:03:00,47.3,44.4,30.12,North,0,0.0,0.0,89,0.01,,,2.71,WUHU216HW,2013-05-03 17:03:00,
2013-05-03 12:04:00,47.3,44.4,30.12,North,0,0.0,0.0,89,0.01,,,2.71,WUHU216HW,2013-05-03 17:04:00,
2013-05-03 12:05:00,47.3,44.4,30.12,North,0,0.0,0.0,89,0.01,,,2.71,WUHU216HW,2013-05-03 17:05:00,
2013-05-03 12:06:00,47.5,44.5,30.12,North,0,0.0,0.0,89,0.01,,,2.71,WUHU216HW,2013-05-03 17:06:00,
2013-05-03 12:07:00,47.5,44.5,30.12,North,0,0.0,0.0,89,0.01,,,2.71,WUHU216HW,2013-05-03 17:07:00,
2013-05-03 12:08:00,47.3,44.4,30.12,North,0,0.0,0.0,89,0.01,,,2.71,WUHU216HW,2013-05-03 17:08:00,
2013-05-03 12:09:00,47.3,44.0,30.12,North,0,0.0,0.0,88,0.01,,,2.71,WUHU216HW,2013-05-03 17:09:00,
2013-05-03 12:10:00,47.3,44.0,30.12,North,0,0.0,0.0,88,0.01,,,2.71,WUHU216HW,2013-05-03 17:10:00,
2013-05-03 12:11:00,47.3,44.0,30.12,North,0,0.0,0.0,88,0.01,,,2.71,WUHU216HW,2013-05-03 17:11:00,
2013-05-03 12:12:00,47.3,44.0,30.12,North,0,0.0,0.0,88,0.01,,,2.71,WUHU216HW,2013-05-03 17:12:00,
2013-05-03 12:13:00,47.3,44.4,30.12,North,0,0.0,0.0,89,0.01,,,2.71,WUHU216HW,2013-05-03 17:13:00,
2013-05-03 12:14:00,47.5,44.5,30.12,North,0,0.0,0.0,89,0.01,,,2.71,WUHU216HW,2013-05-03 17:14:00,
2013-05-03 12:18:00,47.5,44.5,30.11,North,0,0.0,0.0,89,0.01,,,2.71,WUHU216HW,2013-05-03 17:18:00,
2013-05-03 12:19:00,47.3,44.4,30.12,North,0,0.0,0.0,89,0.01,,,2.71,WUHU216HW,2013-05-03 17:19:00,
2013-05-03 12:20:00,47.3,44.4,30.12,North,0,0.0,0.0,89,0.01,,,2.71,WUHU216HW,2013-05-03 17:20:00,
2013-05-03 12:21:00,47.3,44.4,30.12,North,0,0.0,0.0,89,0.01,,,2.71,WUHU216HW,2013-05-03 17:21:00,
2013-05-03 12:22:00,47.3,44.4,30.12,North,0,0.0,0.0,89,0.01,,,2.71,WUHU216HW,2013-05-03 17:22:00,
2013-05-03 12:23:00,47.3,44.4,30.12,North,0,0.0,0.0,89,0.01,,,2.71,WUHU216HW,2013-05-03 17:23:00,
2013-05-03 12:24:00,47.3,44.4,30.12,North,0,0.0,0.0,89,0.01,,,2.71,WUHU216HW,2013-05-03 17:24:00,
2013-05-03 12:25:00,47.3,44.4,30.11,North,0,0.0,0.0,89,0.02,,,2.72,WUHU216HW,2013-05-03 17:25:00,
2013-05-03 12:51:00,45.4,42.9,30.12,North,0,0.0,0.0,91,0.00,,,2.05,WUHU216HW,2013-05-03 17:51:00,
2013-05-03 12:56:00,45.4,42.9,30.13,North,0,0.0,0.0,91,0.00,,,2.05,WUHU216HW,2013-05-03 17:56:00,
2013-05-03 13:01:00,45.7,43.3,30.13,North,0,0.0,0.0,91,0.00,,,2.38,WUHU216HW,2013-05-03 18:01:00,
2013-05-03 13:06:00,45.7,43.3,30.13,North,0,0.0,0.0,91,0.00,,,2.38,WUHU216HW,2013-05-03 18:06:00,
2013-05-03 13:11:00,46.1,43.7,30.12,North,0,0.0,0.0,91,0.00,,,2.38,WUHU216HW,2013-05-03 18:11:00,
2013-05-03 13:16:00,46.4,44.0,30.12,North,0,0.0,0.0,91,0.00,,,2.38,WUHU216HW,2013-05-03 18:16:00,
2013-05-03 13:21:00,46.4,43.7,30.13,North,0,0.0,0.0,90,0.00,,,2.38,WUHU216HW,2013-05-03 18:21:00,
2013-05-03 13:26:00,46.6,43.9,30.13,North,0,0.0,0.0,90,0.00,,,2.38,WUHU216HW,2013-05-03 18:26:00,
2013-05-03 13:37:00,46.8,44.1,30.12,North,0,0.0,0.0,90,0.00,,,2.38,WUHU216HW,2013-05-03 18:37:00,
2013-05-03 13:42:00,47.0,44.0,30.12,North,0,0.0,0.0,89,0.01,,,2.38,WUHU216HW,2013-05-03 18:42:00,
2013-05-03 14:12:00,47.3,44.4,30.12,North,0,0.0,0.0,89,0.01,,,2.71,WUHU216HW,2013-05-03 19:12:00,
2013-05-03 14:17:00,47.5,44.5,30.12,North,0,0.0,0.0,89,0.01,,,2.71,WUHU216HW,2013-05-03 19:17:00,
2013-05-03 14:22:00,47.3,44.4,30.12,North,0,0.0,0.0,89,0.01,,,2.71,WUHU216HW,2013-05-03 19:22:00,
2013-05-03 14:27:00,47.3,44.4,30.11,North,0,0.0,0.0,89,0.02,,,2.72,WUHU216HW,2013-05-03 19:27:00,
2013-05-03 14:32:00,47.3,44.4,30.12,North,0,0.0,0.0,89,0.02,,,2.72,WUHU216HW,2013-05-03 19:32:00,
2013-05-03 14:37:00,47.5,44.5,30.11,North,0,0.0,0.0,89,0.02,,,2.72,WUHU216HW,2013-05-03 19:37:00,
2013-05-03 14:42:00,47.5,44.5,30.11,North,0,0.0,0.0,89,0.01,,,2.72,WUHU216HW,2013-05-03 19:42:00,
2013-05-03 14:47:00,47.5,44.5,30.11,North,0,0.0,0.0,89,0.02,,,2.73,WUHU216HW,2013-05-03 19:47:00,
2013-05-03 14:52:00,47.5,44.5,30.11,North,0,0.0,0.0,89,0.02,,,2.73,WUHU216HW,2013-05-03 19:52:00,
2013-05-03 14:57:00,47.5,44.5,30.11,North,0,0.0,0.0,89,0.02,,,2.73,WUHU216HW,2013-05-03 19:57:00,
2013-05-03 15:02:00,47.2,44.2,30.11,North,0,0.0,0.0,89,0.03,,,2.90,WUHU216HW,2013-05-03 20:02:00,
2013-05-03 15:07:00,47.2,44.2,30.11,North,0,0.0,0.0,89,0.03,,,2.90,WUHU216HW,2013-05-03 20:07:00,
2013-05-03 15:12:00,47.2,44.2,30.11,North,0,0.0,0.0,89,0.03,,,2.90,WUHU216HW,2013-05-03 20:12:00,
2013-05-03 15:17:00,47.2,44.2,30.11,North,0,0.0,0.0,89,0.03,,,2.90,WUHU216HW,2013-05-03 20:17:00,
2013-05-03 15:22:00,47.2,44.2,30.10,North,0,0.0,0.0,89,0.03,,,2.90,WUHU216HW,2013-05-03 20:22:00,
2013-05-03 15:27:00,47.2,44.2,30.11,North,0,0.0,0.0,89,0.02,,,2.90,WUHU216HW,2013-05-03 20:27:00,
2013-05-03 15:32:00,47.2,44.2,30.10,North,0,0.0,0.0,89,0.02,,,2.90,WUHU216HW,2013-05-03 20:32:00,
2013-05-03 15:37:00,47.2,44.2,30.10,North,0,0.0,0.0,89,0.02,,,2.90,WUHU216HW,2013-05-03 20:37:00,
2013-05-03 15:42:00,47.0,44.0,30.10,North,0,0.0,0.0,89,0.01,,,2.90,WUHU216HW,2013-05-03 20:42:00,
2013-05-03 15:47:00,47.0,44.0,30.10,North,0,0.0,0.0,89,0.02,,,2.91,WUHU216HW,2013-05-03 20:47:00,
2013-05-03 15:51:00,47.0,44.0,30.10,North,0,0.0,0.0,89,0.02,,,2.91,WUHU216HW,2013-05-03 20:51:00,
2013-05-03 15:56:00,47.0,44.0,30.09,North,0,0.0,0.0,89,0.01,,,2.91,WUHU216HW,2013-05-03 20:56:00,
2013-05-03 16:01:00,47.0,44.3,30.09,North,0,0.0,0.0,90,0.03,,,3.42,WUHU216HW,2013-05-03 21:01:00,
2013-05-03 16:06:00,46.8,43.8,30.09,North,0,0.0,0.0,89,0.04,,,3.43,WUHU216HW,2013-05-03 21:06:00,
2013-05-03 16:11:00,46.8,44.1,30.09,North,0,0.0,0.0,90,0.05,,,3.44,WUHU216HW,2013-05-03 21:11:00,
2013-05-03 16:16:00,46.8,44.1,30.08,North,0,0.0,0.0,90,0.05,,,3.44,WUHU216HW,2013-05-03 21:16:00,
2013-05-03 16:21:00,47.0,44.3,30.08,North,0,0.0,0.0,90,0.06,,,3.45,WUHU216HW,2013-05-03 21:21:00,
2013-05-03 16:26:00,47.0,44.3,30.08,North,0,0.0,0.0,90,0.07,,,3.46,WUHU216HW,2013-05-03 21:26:00,
2013-05-03 16:31:00,47.2,44.5,30.08,North,0,0.0,0.0,90,0.07,,,3.46,WUHU216HW,2013-05-03 21:31:00,
2013-05-03 16:36:00,47.3,44.6,30.07,North,0,0.0,0.0,90,0.08,,,3.47,WUHU216HW,2013-05-03 21:36:00,
2013-05-03 16:41:00,47.3,44.9,30.08,North,0,0.0,0.0,91,0.07,,,3.47,WUHU216HW,2013-05-03 21:41:00,
2013-05-03 16:46:00,47.5,45.1,30.08,North,0,0.0,0.0,91,0.07,,,3.47,WUHU216HW,2013-05-03 21:46:00,
2013-05-03 16:51:00,47.7,45.3,30.08,North,0,0.0,0.0,91,0.07,,,3.47,WUHU216HW,2013-05-03 21:51:00,
2013-05-03 16:56:00,47.9,45.5,30.08,North,0,0.0,0.0,91,0.07,,,3.48,WUHU216HW,2013-05-03 21:56:00,
2013-05-03 17:01:00,47.9,45.5,30.08,North,0,0.0,0.0,91,0.05,,,3.97,WUHU216HW,2013-05-03 22:01:00,
2013-05-03 17:06:00,47.9,45.5,30.08,North,0,0.0,0.0,91,0.04,,,3.97,WUHU216HW,2013-05-03 22:06:00,
2013-05-03 17:11:00,47.9,45.5,30.08,North,0,0.0,0.0,91,0.04,,,3.97,WUHU216HW,2013-05-03 22:11:00,
2013-05-03 17:16:00,47.9,45.5,30.07,North,0,0.0,0.0,91,0.04,,,3.98,WUHU216HW,2013-05-03 22:16:00,
2013-05-03 17:21:00,47.9,45.5,30.07,North,0,0.0,0.0,91,0.03,,,3.98,WUHU216HW,2013-05-03 22:21:00,
2013-05-03 17:22:00,46.8,44.4,30.08,North,0,0.0,0.0,91,0.00,,,5.80,WUHU216HW,2013-05-03 22:22:00,
2013-05-03 17:23:00,46.8,44.4,30.08,North,0,0.0,0.0,91,0.00,,,5.80,WUHU216HW,2013-05-03 22:23:00,
2013-05-03 17:24:00,46.6,44.2,30.08,North,0,0.0,0.0,91,0.00,,,5.80,WUHU216HW,2013-05-03 22:24:00,
2013-05-03 17:25:00,46.6,44.2,30.08,North,0,0.0,0.0,91,0.00,,,5.80,WUHU216HW,2013-05-03 22:25:00,
2013-05-03 17:26:00,47.9,45.5,30.07,North,0,0.0,0.0,91,0.04,,,3.99,WUHU216HW,2013-05-03 22:26:00,
2013-05-03 17:27:00,46.6,44.2,30.08,North,0,0.0,0.0,91,0.00,,,5.80,WUHU216HW,2013-05-03 22:27:00,
2013-05-03 17:28:00,46.6,44.2,30.08,North,0,0.0,0.0,91,0.00,,,5.80,WUHU216HW,2013-05-03 22:28:00,
2013-05-03 17:31:00,47.9,45.5,30.06,North,0,0.0,0.0,91,0.05,,,4.00,WUHU216HW,2013-05-03 22:31:00,
2013-05-03 17:36:00,47.9,45.5,30.07,North,0,0.0,0.0,91,0.05,,,4.01,WUHU216HW,2013-05-03 22:36:00,
2013-05-03 17:41:00,47.9,45.5,30.07,North,0,0.0,0.0,91,0.05,,,4.01,WUHU216HW,2013-05-03 22:41:00,
2013-05-03 17:46:00,47.9,45.5,30.07,North,0,0.0,0.0,91,0.05,,,4.01,WUHU216HW,2013-05-03 22:46:00,
2013-05-03 17:51:00,47.9,45.5,30.08,North,0,0.0,0.0,91,0.05,,,4.01,WUHU216HW,2013-05-03 22:51:00,
2013-05-03 17:56:00,47.9,45.5,30.08,North,0,0.0,0.0,91,0.04,,,4.01,WUHU216HW,2013-05-03 22:56:00,
2013-05-03 18:01:00,48.1,45.6,30.08,North,0,0.0,0.0,91,0.04,,,4.82,WUHU216HW,2013-05-03 23:01:00,
2013-05-03 18:06:00,47.9,45.5,30.08,North,0,0.0,0.0,91,0.04,,,4.82,WUHU216HW,2013-05-03 23:06:00,
2013-05-03 18:11:00,47.9,45.7,30.08,North,0,0.0,0.0,92,0.04,,,4.82,WUHU216HW,2013-05-03 23:11:00,
2013-05-03 18:16:00,47.9,45.7,30.08,North,0,0.0,0.0,92,0.03,,,4.82,WUHU216HW,2013-05-03 23:16:00,
2013-05-03 18:21:00,47.9,45.7,30.08,North,0,0.0,0.0,92,0.02,,,4.82,WUHU216HW,2013-05-03 23:21:00,
2013-05-03 18:26:00,47.9,45.7,30.08,North,0,0.0,0.0,92,0.02,,,4.82,WUHU216HW,2013-05-03 23:26:00,
2013-05-03 18:31:00,47.9,45.7,30.08,North,0,0.0,0.0,92,0.01,,,4.82,WUHU216HW,2013-05-03 23:31:00,
2013-05-03 18:36:00,47.7,45.5,30.08,North,0,0.0,0.0,92,0.00,,,4.82,WUHU216HW,2013-05-03 23:36:00,
2013-05-03 18:41:00,47.5,45.4,30.08,North,0,0.0,0.0,92,0.00,,,4.82,WUHU216HW,2013-05-03 23:41:00,
2013-05-03 18:46:00,47.5,45.1,30.08,North,0,0.0,0.0,91,0.00,,,4.82,WUHU216HW,2013-05-03 23:46:00,
2013-05-03 18:51:00,47.2,44.7,30.08,North,0,0.0,0.0,91,0.00,,,4.82,WUHU216HW,2013-05-03 23:51:00,
2013-05-03 18:56:00,47.2,44.7,30.09,North,0,0.0,0.0,91,0.00,,,4.82,WUHU216HW,2013-05-03 23:56:00,
2013-05-03 19:01:00,47.2,44.7,30.09,North,0,0.0,0.0,91,0.00,,,5.80,WUHU216HW,2013-05-04 00:01:00,
2013-05-03 19:06:00,47.0,44.6,30.09,North,0,0.0,0.0,91,0.00,,,5.80,WUHU216HW,2013-05-04 00:06:00,
2013-05-03 19:11:00,47.0,44.6,30.09,North,0,0.0,0.0,91,0.00,,,5.80,WUHU216HW,2013-05-04 00:11:00,
2013-05-03 19:16:00,46.8,44.4,30.08,North,0,0.0,0.0,91,0.00,,,5.80,WUHU216HW,2013-05-04 00:16:00,
2013-05-03 19:21:00,46.8,44.4,30.08,North,0,0.0,0.0,91,0.00,,,5.80,WUHU216HW,2013-05-04 00:21:00,
2013-05-03 19:26:00,46.6,44.2,30.08,North,0,0.0,0.0,91,0.00,,,5.80,WUHU216HW,2013-05-04 00:26:00,
2013-05-03 19:31:00,46.4,44.0,30.08,North,0,0.0,0.0,91,0.00,,,5.80,WUHU216HW,2013-05-04 00:31:00,
2013-05-03 19:36:00,46.6,44.2,30.08,North,0,0.0,0.0,91,0.00,,,5.80,WUHU216HW,2013-05-04 00:36:00,
2013-05-03 19:41:00,46.4,44.0,30.08,North,0,0.0,0.0,91,0.00,,,5.80,WUHU216HW,2013-05-04 00:41:00,
2013-05-03 19:46:00,46.4,44.0,30.08,North,0,0.0,0.0,91,0.00,,,5.80,WUHU216HW,2013-05-04 00:46:00,
2013-05-03 19:51:00,46.6,44.2,30.08,North,0,0.0,0.0,91,0.00,,,5.80,WUHU216HW,2013-05-04 00:51:00,
2013-05-03 19:56:00,46.6,44.2,30.08,North,0,0.0,0.0,91,0.00,,,5.80,WUHU216HW,2013-05-04 00:56:00,
2013-05-03 20:01:00,46.6,44.2,30.08,North,0,0.0,0.0,91,0.00,,,6.29,WUHU216HW,2013-05-04 01:01:00,
2013-05-03 20:02:00,47.3,44.6,30.10,North,0,0.0,0.0,90,0.00,,,6.94,WUHU216HW,2013-05-04 01:02:00,
2013-05-03 20:03:00,47.3,44.6,30.10,North,0,0.0,0.0,90,0.00,,,6.94,WUHU216HW,2013-05-04 01:03:00,
2013-05-03 20:04:00,47.3,44.6,30.10,North,0,0.0,0.0,90,0.00,,,6.94,WUHU216HW,2013-05-04 01:04:00,
2013-05-03 20:05:00,47.3,44.6,30.10,North,0,0.0,0.0,90,0.00,,,6.94,WUHU216HW,2013-05-04 01:05:00,
2013-05-03 20:06:00,46.6,44.2,30.08,North,0,0.0,0.0,91,0.00,,,6.29,WUHU216HW,2013-05-04 01:06:00,
2013-05-03 20:07:00,47.3,44.6,30.09,North,0,0.0,0.0,90,0.00,,,6.94,WUHU216HW,2013-05-04 01:07:00,
2013-05-03 20:08:00,47.3,44.6,30.09,North,0,0.0,0.0,90,0.00,,,6.94,WUHU216HW,2013-05-04 01:08:00,
2013-05-03 20:09:00,47.3,44.6,30.09,North,0,0.0,0.0,90,0.01,,,6.94,WUHU216HW,2013-05-04 01:09:00,
2013-05-03 20:10:00,47.3,44.6,30.09,North,0,0.0,0.0,90,0.01,,,6.95,WUHU216HW,2013-05-04 01:10:00,
2013-05-03 20:11:00,46.6,44.2,30.08,North,0,0.0,0.0,91,0.00,,,6.29,WUHU216HW,2013-05-04 01:11:00,
2013-05-03 20:12:00,47.3,44.6,30.09,North,0,0.0,0.0,90,0.01,,,6.95,WUHU216HW,2013-05-04 01:12:00,
2013-05-03 20:13:00,47.3,44.6,30.09,North,0,0.0,0.0,90,0.01,,,6.95,WUHU216HW,2013-05-04 01:13:00,
2013-05-03 20:14:00,47.3,44.6,30.09,North,0,0.0,0.0,90,0.01,,,6.95,WUHU216HW,2013-05-04 01:14:00,
2013-05-03 20:15:00,47.5,44.8,30.09,North,0,0.0,0.0,90,0.01,,,6.95,WUHU216HW,2013-05-04 01:15:00,
2013-05-03 20:16:00,46.8,44.4,30.08,North,0,0.0,0.0,91,0.00,,,6.29,WUHU216HW,2013-05-04 01:16:00,
2013-05-03 20:17:00,47.5,44.8,30.09,North,0,0.0,0.0,90,0.01,,,6.95,WUHU216HW,2013-05-04 01:17:00,
2013-05-03 20:18:00,47.5,44.8,30.09,North,0,0.0,0.0,90,0.01,,,6.95,WUHU216HW,2013-05-04 01:18:00,
2013-05-03 20:19:00,47.5,44.8,30.09,North,0,0.0,0.0,90,0.01,,,6.95,WUHU216HW,2013-05-04 01:19:00,
2013-05-03 20:20:00,47.5,44.8,30.09,North,0,0.0,0.0,90,0.01,,,6.95,WUHU216HW,2013-05-04 01:20:00,
2013-05-03 20:21:00,46.8,44.4,30.08,North,0,0.0,0.0,91,0.00,,,6.29,WUHU216HW,2013-05-04 01:21:00,
2013-05-03 20:22:00,47.5,44.5,30.09,North,0,0.0,0.0,89,0.01,,,6.95,WUHU216HW,2013-05-04 01:22:00,
2013-05-03 20:23:00,47.5,44.5,30.09,North,0,0.0,0.0,89,0.01,,,6.95,WUHU216HW,2013-05-04 01:23:00,
2013-05-03 20:24:00,47.3,44.4,30.09,North,0,0.0,0.0,89,0.01,,,6.95,WUHU216HW,2013-05-04 01:24:00,
2013-05-03 20:25:00,47.3,44.4,30.09,North,0,0.0,0.0,89,0.01,,,6.95,WUHU216HW,2013-05-04 01:25:00,
2013-05-03 20:26:00,46.8,44.4,30.08,North,0,0.0,0.0,91,0.00,,,6.29,WUHU216HW,2013-05-04 01:26:00,
2013-05-03 20:27:00,47.3,44.4,30.09,North,0,0.0,0.0,89,0.01,,,6.95,WUHU216HW,2013-05-04 01:27:00,
2013-05-03 20:28:00,47.3,44.4,30.09,North,0,0.0,0.0,89,0.01,,,6.95,WUHU216HW,2013-05-04 01:28:00,
2013-05-03 20:29:00,47.3,44.4,30.08,North,0,0.0,0.0,89,0.01,,,6.95,WUHU216HW,2013-05-04 01:29:00,
2013-05-03 20:30:00,47.3,44.4,30.09,North,0,0.0,0.0,89,0.01,,,6.95,WUHU216HW,2013-05-04 01:30:00,
2013-05-03 20:31:00,46.8,44.4,30.08,North,0,0.0,0.0,91,0.00,,,6.29,WUHU216HW,2013-05-04 01:31:00,
2013-05-03 20:32:00,47.3,44.4,30.09,North,0,0.0,0.0,89,0.01,,,6.95,WUHU216HW,2013-05-04 01:32:00,
2013-05-03 20:33:00,47.3,44.4,30.09,North,0,0.0,0.0,89,0.01,,,6.95,WUHU216HW,2013-05-04 01:33:00,
2013-05-03 20:34:00,47.2,44.2,30.09,North,0,0.0,0.0,89,0.01,,,6.95,WUHU216HW,2013-05-04 01:34:00,
2013-05-03 20:35:00,47.2,44.2,30.09,North,0,0.0,0.0,89,0.01,,,6.95,WUHU216HW,2013-05-04 01:35:00,
2013-05-03 20:36:00,46.8,44.4,30.08,North,0,0.0,0.0,91,0.00,,,6.29,WUHU216HW,2013-05-04 01:36:00,
2013-05-03 20:37:00,47.2,43.8,30.09,North,0,0.0,0.0,88,0.01,,,6.95,WUHU216HW,2013-05-04 01:37:00,
2013-05-03 20:38:00,47.2,43.8,30.09,North,0,0.0,0.0,88,0.01,,,6.95,WUHU216HW,2013-05-04 01:38:00,
2013-05-03 20:39:00,47.2,43.8,30.09,North,0,0.0,0.0,88,0.01,,,6.95,WUHU216HW,2013-05-04 01:39:00,
2013-05-03 20:40:00,47.2,43.8,30.09,North,0,0.0,0.0,88,0.01,,,6.95,WUHU216HW,2013-05-04 01:40:00,
2013-05-03 20:41:00,47.0,44.6,30.08,North,0,0.0,0.0,91,0.00,,,6.29,WUHU216HW,2013-05-04 01:41:00,
2013-05-03 20:42:00,47.2,43.8,30.09,North,0,0.0,0.0,88,0.01,,,6.95,WUHU216HW,2013-05-04 01:42:00,
2013-05-03 20:43:00,47.2,43.8,30.09,North,0,0.0,0.0,88,0.01,,,6.95,WUHU216HW,2013-05-04 01:43:00,
2013-05-03 20:44:00,47.2,43.8,30.09,North,0,0.0,0.0,88,0.01,,,6.95,WUHU216HW,2013-05-04 01:44:00,
2013-05-03 20:45:00,47.2,43.8,30.09,North,0,0.0,0.0,88,0.01,,,6.95,WUHU216HW,2013-05-04 01:45:00,
2013-05-03 20:46:00,47.0,44.6,30.08,North,0,0.0,0.0,91,0.00,,,6.29,WUHU216HW,2013-05-04 01:46:00,
2013-05-03 20:47:00,47.0,43.7,30.09,North,0,0.0,0.0,88,0.01,,,6.95,WUHU216HW,2013-05-04 01:47:00,
2013-05-03 20:48:00,47.0,43.7,30.09,North,0,0.0,0.0,88,0.01,,,6.95,WUHU216HW,2013-05-04 01:48:00,
2013-05-03 20:49:00,47.0,43.7,30.09,North,0,0.0,0.0,88,0.01,,,6.95,WUHU216HW,2013-05-04 01:49:00,
2013-05-03 20:50:00,47.0,43.7,30.09,North,0,0.0,0.0,88,0.01,,,6.95,WUHU216HW,2013-05-04 01:50:00,
2013-05-03 20:51:00,47.2,44.7,30.08,North,0,0.0,0.0,91,0.00,,,6.29,WUHU216HW,2013-05-04 01:51:00,
2013-05-03 20:52:00,47.0,43.7,30.09,North,0,0.0,0.0,88,0.01,,,6.95,WUHU216HW,2013-05-04 01:52:00,
2013-05-03 20:53:00,47.0,43.7,30.09,North,0,0.0,0.0,88,0.01,,,6.95,WUHU216HW,2013-05-04 01:53:00,
2013-05-03 20:54:00,46.8,43.5,30.09,North,0,0.0,0.0,88,0.01,,,6.95,WUHU216HW,2013-05-04 01:54:00,
2013-05-03 20:55:00,46.8,43.5,30.09,North,0,0.0,0.0,88,0.01,,,6.95,WUHU216HW,2013-05-04 01:55:00,
2013-05-03 20:56:00,47.2,44.7,30.08,North,0,0.0,0.0,91,0.00,,,6.29,WUHU216HW,2013-05-04 01:56:00,
2013-05-03 20:57:00,46.8,43.5,30.08,North,0,0.0,0.0,88,0.01,,,6.95,WUHU216HW,2013-05-04 01:57:00,
2013-05-03 20:58:00,46.8,43.5,30.08,North,0,0.0,0.0,88,0.01,,,6.95,WUHU216HW,2013-05-04 01:58:00,
2013-05-03 20:59:00,46.8,43.5,30.08,North,0,0.0,0.0,88,0.01,,,6.95,WUHU216HW,2013-05-04 01:59:00,
2013-05-03 21:00:00,46.8,43.5,30.08,North,0,0.0,0.0,88,0.01,,,6.95,WUHU216HW,2013-05-04 02:00:00,
2013-05-03 21:01:00,47.2,44.7,30.08,North,0,0.0,0.0,91,0.00,,,6.61,WUHU216HW,2013-05-04 02:01:00,
2013-05-03 21:02:00,46.8,43.5,30.08,North,0,0.0,0.0,88,0.01,,,6.95,WUHU216HW,2013-05-04 02:02:00,
2013-05-03 21:03:00,46.8,43.5,30.08,North,0,0.0,0.0,88,0.01,,,6.95,WUHU216HW,2013-05-04 02:03:00,
2013-05-03 21:04:00,46.8,43.5,30.08,North,0,0.0,0.0,88,0.01,,,6.95,WUHU216HW,2013-05-04 02:04:00,
2013-05-03 21:05:00,46.6,43.3,30.08,North,0,0.0,0.0,88,0.01,,,6.95,WUHU216HW,2013-05-04 02:05:00,
2013-05-03 21:06:00,47.2,44.7,30.09,North,0,0.0,0.0,91,0.00,,,6.61,WUHU216HW,2013-05-04 02:06:00,
2013-05-03 21:07:00,46.6,43.3,30.08,North,0,0.0,0.0,88,0.01,,,6.95,WUHU216HW,2013-05-04 02:07:00,
2013-05-03 21:08:00,46.6,43.3,30.08,North,0,0.0,0.0,88,0.00,,,6.95,WUHU216HW,2013-05-04 02:08:00,
2013-05-03 21:09:00,46.6,43.3,30.08,North,0,0.0,0.0,88,0.00,,,6.95,WUHU216HW,2013-05-04 02:09:00,
2013-05-03 21:10:00,46.6,43.3,30.08,North,0,0.0,0.0,88,0.00,,,6.95,WUHU216HW,2013-05-04 02:10:00,
2013-05-03 21:11:00,47.2,44.7,30.09,North,0,0.0,0.0,91,0.00,,,6.61,WUHU216HW,2013-05-04 02:11:00,
2013-05-03 21:12:00,46.6,43.3,30.08,North,0,0.0,0.0,88,0.00,,,6.95,WUHU216HW,2013-05-04 02:12:00,
2013-05-03 21:16:00,47.3,44.9,30.09,North,0,0.0,0.0,91,0.00,,,6.61,WUHU216HW,2013-05-04 02:16:00,
2013-05-03 21:21:00,47.3,44.9,30.09,North,0,0.0,0.0,91,0.00,,,6.61,WUHU216HW,2013-05-04 02:21:00,
2013-05-03 21:26:00,47.3,44.9,30.09,North,0,0.0,0.0,91,0.00,,,6.61,WUHU216HW,2013-05-04 02:26:00,
2013-05-03 21:31:00,47.3,44.9,30.08,North,0,0.0,0.0,91,0.00,,,6.61,WUHU216HW,2013-05-04 02:31:00,
2013-05-03 21:36:00,47.3,44.9,30.09,North,0,0.0,0.0,91,0.00,,,6.61,WUHU216HW,2013-05-04 02:36:00,
2013-05-03 21:41:00,47.2,44.5,30.09,North,0,0.0,0.0,90,0.00,,,6.61,WUHU216HW,2013-05-04 02:41:00,
2013-05-03 21:46:00,47.2,44.5,30.09,North,0,0.0,0.0,90,0.00,,,6.61,WUHU216HW,2013-05-04 02:46:00,
2013-05-03 21:51:00,47.2,44.5,30.10,North,0,0.0,0.0,90,0.00,,,6.61,WUHU216HW,2013-05-04 02:51:00,
2013-05-03 21:56:00,47.3,44.6,30.10,North,0,0.0,0.0,90,0.00,,,6.61,WUHU216HW,2013-05-04 02:56:00,
2013-05-03 22:01:00,47.3,44.6,30.10,North,0,0.0,0.0,90,0.00,,,6.94,WUHU216HW,2013-05-04 03:01:00,
2013-05-03 23:11:00,46.6,43.3,30.08,North,0,0.0,0.0,88,0.00,,,6.95,WUHU216HW,2013-05-04 04:11:00,
2013-05-03 23:16:00,46.6,43.3,30.08,North,0,0.0,0.0,88,0.00,,,6.95,WUHU216HW,2013-05-04 04:16:00,
2013-05-03 23:21:00,46.6,43.3,30.08,North,0,0.0,0.0,88,0.00,,,6.95,WUHU216HW,2013-05-04 04:21:00,
2013-05-03 23:26:00,46.6,43.3,30.08,North,0,0.0,0.0,88,0.00,,,6.95,WUHU216HW,2013-05-04 04:26:00,
2013-05-03 23:31:00,46.6,43.3,30.08,North,0,0.0,0.0,88,0.00,,,6.95,WUHU216HW,2013-05-04 04:31:00,
2013-05-03 23:36:00,46.6,43.3,30.08,North,0,0.0,0.0,88,0.00,,,6.95,WUHU216HW,2013-05-04 04:36:00,
2013-05-03 23:41:00,46.6,43.3,30.08,North,0,0.0,0.0,88,0.00,,,6.95,WUHU216HW,2013-05-04 04:41:00,
2013-05-03 23:46:00,46.4,43.1,30.08,North,0,0.0,0.0,88,0.00,,,6.95,WUHU216HW,2013-05-04 04:46:00,
2013-05-03 23:51:00,46.4,43.1,30.08,North,0,0.0,0.0,88,0.00,,,6.95,WUHU216HW,2013-05-04 04:51:00,
2013-05-03 23:56:00,46.4,43.1,30.08,North,0,0.0,0.0,88,0.00,,,6.95,WUHU216HW,2013-05-04 04:56:00,